Regional Weather Roundup
Issued by NWS

Home | Current Version | Previous Version | Text Only | Print | Product List | Glossary Off
Versions: 1 2 3 4 5 6 7 8 9 10 11 12 13 14 15 16 17 18 19 20 21 22 23 24 25 26 27 28 29 30 31 32 33 34 35 36 37 38 39 40 41 42 43 44 45 46 47 48 49 50

000
ASUS43 KLSX 060710
RWRMO

WEATHER SUMMARY FOR MISSOURI
NATIONAL WEATHER SERVICE SPRINGFIELD MO
100 AM CST SAT FEB 06 2016

NOTE: "FAIR" INDICATES FEW OR NO CLOUDS BELOW 12,000 FEET WITH NO
       SIGNIFICANT WEATHER AND/OR OBSTRUCTIONS TO VISIBILITY.
       CURRENT SKY AND/OR WEATHER CONDITIONS ARE NOT AVAILABLE FOR
       CHILLICOTHE AND FARMINGTON.

MOZ001>031-035>038-043-044-053-054-060800-
...NORTHERN AND WESTERN MISSOURI...

CITY           SKY/WX    TMP DP  RH WIND       PRES   REMARKS
KANSAS CTY INT PTCLDY    35  24  64 CALM      30.24F
KANSAS C DTWN  MOCLDY    34  26  72 NE3       30.25F
LEE`S SUMMIT   CLOUDY    36  25  64 CALM      30.25F
ST JOSEPH      CLEAR     25  23  92 CALM      30.27F
CHILLICOTHE      N/A     32  23  69 CALM      30.28F
KIRKSVILLE     MOCLDY    29  20  69 SE3       30.28S

$$
MOZ066>068-077>081-088>096-101>105-060800-
...SOUTHWEST MISSOURI...

CITY           SKY/WX    TMP DP  RH WIND       PRES   REMARKS
SPRINGFIELD    CLOUDY    33  18  53 S8        30.27F WCI  26
JOPLIN         CLOUDY    42  18  37 S10       30.28F

$$
MOZ032>034-039>042-045>050-055>058-069>072-060800-
...CENTRAL MISSOURI...

CITY           SKY/WX    TMP DP  RH WIND       PRES   REMARKS
COLUMBIA       MOCLDY    32  18  56 SE7       30.28F WCI  26
JEFFERSON CITY CLOUDY    32  20  61 E5        30.31S WCI  27
ROLLA          CLEAR     31  19  61 S7        30.26F WCI  24
SEDALIA        CLOUDY    33  23  66 S7        30.28F WCI  27
WHITEMAN AFB   PTCLDY    33  23  66 S7        30.26F WCI  27
WARRENSBURG    PTCLDY    32  25  74 S6        30.27F WCI  26
OSAGE BEACH    CLOUDY    30  19  64 SE3       30.29S

$$
MOZ051-052-059>065-060800-
...EAST CENTRAL MISSOURI...

CITY           SKY/WX    TMP DP  RH WIND       PRES   REMARKS
ST LOUIS INTL  MOCLDY    31  20  63 E3        30.32F
SPIRIT OF STL  CLOUDY    28  23  81 CALM      30.31F
ST CHARLES     CLOUDY    29  25  85 E5        30.32F WCI  24

$$
MOZ072>076-082>087-097>100-106>115-060800-
...SOUTH CENTRAL AND SOUTHEAST MISSOURI...

CITY           SKY/WX    TMP DP  RH WIND       PRES   REMARKS
CAPE GIRARDEAU CLEAR     28  24  85 CALM      30.34S
FARMINGTON     CLEAR     26  22  84 CALM      30.30F
POPLAR BLUFF   CLEAR     35  24  64 SW5       30.33F
WEST PLAINS    CLEAR     36  14  40 SW6       30.31S

$$



USA.gov is the U.S. government's official web portal to all federal, state and local government web resources and services.